SCP
-0 -0 -0 -0 -0 -0 -0 -0 0 0 0 0 0 0 0 0 0 0 0 0 0 0 0 0 0 0 0 0 0 0 0 0 0 0 0 0 0 0 0 0 -0 -0 -0 0 0 0 0
-0 -0 -0 -0 -0 -0 -0 -0 -0 0 0 0 0 0 0 0 0 0 0 0 0 0 0 0 0 0 0 0 0 0 0 0 0 0 0 0 0 0 0 0 0 0 0 0 0 0 0
-0 -0 -0 -0 -0 -0 -0 -0 -0 -0 -0 0 0 0 0 0 0 0 0 0 0 0 0 0 0 0 0 0 0 0 0 0 0 0 0 0 0 0 0 0 0 0 0 0 0 0 0
-0 -0 -0 -0 -0 0 0 0 -0 -0 -0 -0 -0 -0 0 0 0 0 0 0 0 0 0 0 0 0 0 0 0 0 0 0 0 0 0 0 0 0 0 -0 0 0 -0 -0 -0 0 0
-0 -0 -0 -0 -0 -0 0 0 0 0 -0 -0 -0 -0 -0 0 0 0 0 0 0 0 0 0 0 0 0 0 0 0 0 0 0 0 0 0 0 0 -0 -0 -0 -0 -0 0 0 -0 0
0 0 0 0 0 0 0 0 0 0 0 0 0 -0 -0 -0 0 0 0 0 0 0 0 0 0 0 0 0 0 0 0 0 0 0 0 0 0 0 0 -0 -0 -0 -0 -0 0 0 0
0 0 0 0 0 0 0 0 0 0 0 0 0 0 -0 -0 0 0 0 0 0 0 0 0 0 0 0 0 0 0 0 0 0 0 0 0 0 0 -0 -0 0 0 0 0 0 0 0
0 0 0 0 0 0 0 0 0 0 0 0 0 0 -0 -0 0 0 0 0 0 -0 0 0 0 0 0 0 0 0 0 0 0 0 0 0 -0 -0 0 0 0 -0 0 -0 -0 0 0
0 -0 -0 0 0 0 0 0 0 0 0 0 0 0 -0 -0 -0 0 0 0 0 0 0 0 0 0 0 0 0 0 0 -0 0 0 0 0 0 -0 0 -0 -0 -0 -0 0 0 0 0
0 0 0 0 0 0 0 0 -0 -0 -0 -0 -0 0 0 -0 0 0 0 0 0 0 0 0 0 -0 0 0 0 -0 -0 0 0 0 0 0 0 0 0 0 -0 0 0 0 0 0 0
0 0 0 0 0 0 0 -0 -0 -0 -0 -0 -0 0 0 0 0 0 0 0 0 0 0 0 0 0 0 0 0 0 0 0 0 0 0 0 0 0 0 -0 0 0 0 0 0 0 0
0 0 0 0 0 0 0 -0 -0 -0 -0 -0 -0 0 0 0 0 0 0 0 0 0 0 -0 0 0 0 -0 0 -0 0 -0 -0 0 0 0 -0 -0 0 -0 0 0 0 0 -0 0 -0
0 0 0 0 0 0 0 -0 -0 -0 -0 -0 -0 -0 0 0 0 0 0 0 0 0 0 -0 -0 0 -0 0 0 -0 -0 -0 -0 0 0 0 0 0 0 0 0 0 0 0 0 0 -0
0 0 -0 0 0 0 0 0 -0 -0 -0 -0 -0 -0 -0 0 0 0 0 0 0 0 0 0 -0 -0 0 0 -0 -0 0 -0 0 0 0 0 -0 -0 0 -0 0 0 -0 0 0 0 -0
0 0 0 0 0 0 0 0 -0 -0 -0 -0 -0 -0 0 0 0 0 0 -0 0 0 0 0 0 0 -0 0 -0 0 0 -0 -0 0 0 -0 -0 0 -0 0 -0 0 0 -0 -0 0 0
0 0 0 0 0 0 0 0 0 -0 -0 -0 0 0 0 0 0 0 0 -0 -0 0 0 0 -0 0 0 -0 -0 0 0 0 -0 -0 0 0 0 -0 0 -0 -0 -0 0 0 0 0 0
0 0 0 0 0 0 0 0 -0 -0 -0 -0 0 0 0 0 0 0 -0 -0 -0 -0 0 0 0 0 0 -0 0 0 -0 0 -0 0 0 0 0 0 0 0 -0 0 -0 -0 0 0 0
0 0 0 0 0 0 0 0 0 -0 -0 -0 0 0 0 0 0 0 -0 -0 -0 -0 0 0 0 -0 0 0 -0 -0 -0 0 -0 -0 0 0 0 0 -0 0 0 -0 0 0 0 0 0
0 0 0 0 0 0 0 0 0 -0 -0 0 0 0 0 0 0 0 0 0 0 0 0 0 0 0 0 0 0 0 -0 0 0 -0 0 0 0 0 0 0 0 0 0 -0 0 0 0
0 0 0 0 0 0 0 0 0 -0 0 0 0 0 0 0 0 0 0 0 0 0 0 0 0 0 0 0 0 0 0 0 0 0 0 0 0 0 0 0 0 0 0 -0 0 0 0
0 0 0 0 0 0 0 0 0 0 0 0 0 0 0 0 0 0 0 0 0 0 -0 0 0 0 0 0 0 0 0 0 0 0 0 0 0 0 0 0 0 0 0 0 0 -0 0
0 0 0 0 0 0 0 0 0 0 0 0 0 0 0 -0 0 0 0 0 0 0 0 0 0 0 -0 -0 -0 -0 -0 0 0 0 0 0 0 0 0 0 0 0 0 0 0 0 0
0 0 0 0 0 0 0 0 0 0 0 0 0 0 0 0 0 0 0 0 1 0 0 0 0 -0 0 -0 -0 -0 -0 0 0 0 0 0 0 0 0 0 0 0 0 0 0 0 0
0 0 0 0 0 0 0 0 0 0 0 0 0 0 0 0 0 0 0 0 1 0 0 0 0 -0 -0 0 0 0 0 0 0 0 0 0 0 0 0 0 0 0 0 0 0 0 0
0 0 0 0 0 0 0 0 0 0 0 0 0 0 0 0 0 0 0 0 0 0 0 0 0 0 -0 0 0 0 0 0 0 0 0 0 0 0 0 0 0 0 0 0 0 0 0
0 0 0 0 0 0 0 0 0 0 0 0 0 0 0 -0 0 0 0 0 0 0 1 0 0 0 0 0 0 0 0 0 0 0 0 0 0 0 0 0 0 0 0 0 0 0 0
0 0 0 0 0 0 0 0 0 0 0 0 0 0 0 0 0 0 0 0 0 0 0 0 0 0 0 0 0 0 0 0 0 0 0 0 0 0 0 0 0 0 0 0 0 0 0
0 0 0 0 0 0 0 0 0 0 0 0 0 0 0 0 0 0 0 0 0 0 0 0 0 0 0 0 0 0 0 0 0 0 0 0 0 0 0 0 0 0 0 0 0 0 0
0 0 -0 0 0 0 0 0 0 0 0 0 0 0 0 0 0 0 0 0 0 -0 0 0 0 0 0 0 0 0 0 0 0 0 0 0 0 0 0 0 0 0 0 0 0 0 0
Wind_Speed_500mb
35 35 35 35 35 35 34 34 34 34 35 36 36 36 37 35 33 27 23 21 19 19 20 21 21 20 17 15 36 9 6 4 20 27 31 28 38 26 9 19 34 5 7 27 31 29 25
37 36 36 35 35 35 35 36 36 36 37 37 38 38 39 37 34 26 21 20 17 17 18 18 19 20 18 23 31 24 28 21 20 29 29 29 30 24 29 20 10 18 7 8 24 30 31
36 36 37 37 36 37 36 37 38 39 39 40 41 41 41 40 35 25 19 17 14 15 16 16 17 20 30 48 12 19 23 22 23 26 30 30 31 37 53 27 30 42 7 15 18 10 14
35 35 36 37 38 38 39 39 40 40 41 42 42 44 43 42 35 23 17 13 12 13 13 13 15 19 28 30 33 41 26 28 30 25 32 27 32 53 21 25 29 11 6 6 14 17 10
35 35 36 37 38 40 40 41 42 43 43 44 45 46 45 44 34 21 14 10 10 12 12 11 11 13 26 15 25 39 31 24 20 29 34 33 46 26 18 6 11 12 6 11 9 14 9
33 35 37 38 39 40 42 43 43 44 45 46 46 47 47 45 33 19 11 10 9 11 12 11 15 10 31 23 27 42 31 24 23 28 29 31 22 5 8 10 8 5 8 9 8 6 21
34 35 36 38 41 42 42 43 45 46 47 48 48 48 47 46 31 18 11 7 5 5 18 24 18 31 15 22 18 31 41 30 31 23 5 31 3 17 21 10 16 16 15 13 3 12 17
36 36 37 38 40 43 44 45 46 47 49 50 49 49 47 45 27 17 15 15 9 5 19 28 49 54 54 39 17 36 34 28 14 12 3 8 16 26 17 16 18 21 14 12 6 15 22
38 39 39 39 40 42 46 47 48 48 49 50 51 50 47 42 23 16 18 22 14 29 10 26 40 47 55 18 27 38 47 49 9 11 11 17 31 12 18 22 17 23 12 8 9 9 13
37 40 42 41 41 43 44 47 49 50 51 51 52 51 48 39 16 9 3 18 11 11 8 12 15 19 27 27 14 39 46 39 12 20 13 13 39 27 19 16 14 11 5 9 4 8 10
39 39 41 44 44 44 45 47 50 52 52 52 52 51 48 39 15 13 7 17 18 4 7 9 12 4 30 18 5 22 43 49 23 16 13 18 7 14 18 26 12 14 9 3 2 8 7
41 42 42 43 45 47 47 47 49 53 53 54 52 52 51 38 21 9 12 6 10 9 11 7 18 14 12 15 13 28 33 47 23 6 10 19 36 12 20 17 12 6 6 14 11 7 8
43 43 44 45 46 48 50 50 50 53 55 56 53 51 49 30 10 16 9 5 9 5 13 10 12 13 13 13 10 10 16 11 16 5 12 15 16 10 14 3 12 13 14 8 9 9 7
43 44 45 45 45 48 50 53 52 53 57 59 54 49 37 18 26 16 7 9 5 11 15 4 10 17 15 12 14 15 15 15 12 10 5 6 15 8 4 10 18 9 16 12 10 5 6
46 47 48 45 44 46 49 53 55 54 56 61 56 46 26 11 33 21 7 5 14 12 11 13 8 9 10 12 11 13 21 20 17 17 16 3 13 11 6 10 19 12 6 17 14 6 9
45 48 48 45 44 43 47 50 54 55 55 59 58 43 20 14 40 26 8 10 11 8 16 10 11 11 17 13 12 11 17 17 17 22 25 14 10 14 16 13 5 17 8 2 5 10 5
46 46 48 44 42 41 44 45 51 54 53 47 41 21 6 24 41 13 7 14 14 34 21 12 11 15 18 15 22 17 24 11 34 18 32 11 8 20 5 4 7 9 8 11 12 7 10
45 47 46 45 38 37 38 43 45 51 51 41 16 6 18 34 10 8 7 8 12 36 71 28 14 23 17 10 12 22 24 24 58 52 20 22 12 8 10 4 12 11 5 12 8 5 5
48 48 45 40 36 32 33 38 40 45 50 52 38 13 26 42 4 5 13 12 30 35 41 14 11 8 6 13 1 18 23 43 36 27 22 15 2 3 18 13 7 11 12 12 9 10 13
44 43 44 37 34 32 30 33 36 39 40 41 14 7 4 39 31 3 8 15 9 47 33 22 17 8 10 13 3 6 12 5 34 35 30 21 8 14 14 13 9 2 11 3 3 9 8
41 41 42 35 33 33 31 28 32 33 34 31 5 5 5 8 8 10 1 9 22 19 16 23 14 5 5 15 14 14 8 6 12 28 15 13 9 9 9 9 9 11 7 6 7 9 9
41 40 38 34 34 33 32 29 29 29 29 15 6 10 16 14 24 8 6 7 27 31 2 29 9 15 19 9 6 6 3 12 3 10 5 6 4 5 10 3 15 11 12 14 8 17 14
41 39 38 35 37 35 31 29 26 25 22 8 8 13 9 13 11 5 5 14 24 27 24 7 12 5 13 8 13 32 42 31 19 7 5 9 10 7 1 9 11 7 3 4 6 4 4
42 40 37 37 37 38 35 30 25 25 22 17 14 14 6 8 5 5 18 25 25 22 12 11 12 9 6 7 5 12 26 50 52 42 30 9 10 6 4 7 2 11 8 13 9 9 8
43 39 36 37 37 37 39 35 27 25 25 22 14 9 5 7 12 17 23 14 37 48 15 4 6 8 9 8 8 10 12 14 15 18 26 15 9 9 8 4 10 5 5 4 11 11 5
41 38 35 33 32 32 36 38 30 24 26 24 16 19 10 5 12 5 19 17 7 11 18 13 18 13 9 8 8 8 5 6 11 16 14 17 15 9 5 8 4 9 8 9 9 7 9
39 38 36 33 31 30 30 31 27 22 24 22 11 16 13 12 31 11 5 7 14 15 5 8 26 19 6 5 8 6 4 5 4 9 9 9 9 7 3 7 3 11 13 17 9 12 31
39 38 34 33 31 31 30 30 24 23 24 23 10 21 28 13 55 47 34 27 20 8 3 20 11 11 12 9 8 3 6 3 6 5 3 6 6 4 1 10 9 9 13 5 11 10 18
39 38 34 34 32 32 32 28 27 24 24 23 15 30 13 28 31 21 41 38 43 23 9 13 1 6 2 8 6 6 6 4 8 4 4 5 12 9 13 12 11 17 16 10 11 11 32
Wind_Direction_500mb
22 19 16 13 12 10 8 6 3 360 356 353 349 347 344 338 329 315 302 289 276 264 255 253 253 259 271 262 251 181 123 301 272 265 268 280 287 289 286 310 316 162 244 182 194 188 206
18 17 15 13 9 6 4 2 0 358 355 351 349 346 344 339 331 317 302 287 273 259 255 251 250 255 253 248 239 239 254 254 275 258 261 260 263 305 296 277 302 297 325 181 211 227 205
16 14 12 12 9 5 2 360 358 356 353 351 348 345 343 340 332 318 300 282 265 253 251 250 249 249 250 244 236 231 224 233 254 274 265 251 279 287 293 293 335 341 270 328 299 206 169
10 9 9 6 6 4 1 359 356 354 352 349 347 345 344 340 333 319 298 270 252 250 249 245 248 262 259 258 255 245 229 245 242 256 259 273 295 287 272 317 342 332 28 26 291 158 190
4 4 3 3 1 359 358 356 354 353 350 348 347 345 343 340 333 319 292 254 231 231 235 235 244 255 265 245 234 204 218 227 226 247 256 272 282 280 320 46 357 1 287 235 283 217 148
357 358 358 357 356 355 353 352 351 350 348 347 346 344 342 340 332 315 278 239 224 223 220 218 223 281 250 249 207 198 192 221 264 271 276 254 277 7 347 76 240 310 276 238 176 274 72
349 350 352 354 352 350 349 348 347 346 345 344 344 343 342 340 329 309 268 217 202 223 236 227 220 221 245 16 221 208 216 222 251 277 275 262 65 238 255 220 252 267 273 250 277 148 72
343 343 344 346 349 349 346 344 343 343 342 340 340 340 340 339 326 301 256 223 160 16 288 276 255 256 263 272 299 229 205 212 217 227 264 339 244 242 243 244 252 278 226 274 218 128 111
338 338 338 339 340 344 345 343 341 339 338 337 336 337 338 338 320 288 257 242 224 297 284 280 246 246 248 234 235 253 204 206 184 213 218 200 243 254 244 276 275 268 211 259 176 109 44
333 334 335 334 334 337 340 341 339 337 336 334 333 333 335 337 313 277 22 25 243 258 25 272 198 249 227 238 262 206 197 198 209 210 221 229 255 254 258 256 226 230 202 277 183 110 179
327 328 329 331 331 332 334 336 336 336 334 331 328 328 329 325 273 242 5 342 351 106 348 226 181 231 205 188 213 204 198 204 210 228 125 236 246 243 260 242 226 230 169 228 334 112 93
320 323 325 326 328 330 330 330 333 334 334 329 325 324 320 314 267 238 255 327 134 46 256 253 144 184 133 205 231 196 212 213 227 218 277 251 278 207 235 228 179 189 105 37 53 83 16
316 318 319 321 324 326 327 327 329 332 333 327 322 323 312 288 234 202 250 26 57 178 311 198 181 140 172 195 232 163 192 208 202 147 281 299 264 254 212 127 3 74 59 1 351 24 203
310 313 313 316 320 323 326 326 327 330 333 326 323 322 302 263 198 199 219 58 196 257 251 212 128 150 176 170 235 190 161 202 246 146 40 232 293 210 345 183 189 184 146 157 212 126 244
307 310 309 309 314 319 324 325 326 329 334 329 328 325 296 199 187 191 148 121 215 222 302 26 29 149 234 210 169 153 175 203 218 163 172 197 274 325 266 192 141 246 205 185 116 56 85
305 309 309 305 309 316 320 325 326 330 336 336 334 324 286 196 181 178 90 232 236 216 1 6 246 193 200 224 167 134 171 207 224 198 171 235 270 257 274 157 173 157 178 90 16 140 162
302 306 306 301 302 312 318 324 327 330 338 343 336 329 49 165 166 159 165 234 282 283 303 320 302 230 231 190 174 189 202 251 198 222 165 161 130 279 353 31 117 351 314 63 106 86 146
299 302 304 299 294 307 319 322 329 332 339 347 357 330 183 167 131 188 195 210 299 297 300 293 243 220 186 163 196 193 201 200 206 211 168 202 166 193 213 204 173 177 29 114 122 196 227
295 297 300 297 286 298 317 322 329 335 344 350 335 288 185 180 148 270 283 289 282 285 279 282 289 293 186 186 194 192 203 226 201 194 193 178 241 11 343 352 348 96 72 50 131 109 214
291 295 297 290 280 289 308 320 324 330 338 343 333 338 310 216 244 137 342 293 268 295 288 287 256 310 31 11 11 205 226 233 206 188 193 135 112 150 189 210 210 173 92 103 127 103 226
287 290 293 289 278 283 299 315 319 325 331 338 274 274 348 310 347 341 237 281 290 271 298 318 301 274 95 27 349 3 350 305 69 145 125 110 121 132 181 171 60 27 60 75 87 212 164
279 284 286 284 277 276 288 303 314 320 330 331 299 354 343 292 290 282 266 277 283 297 221 301 275 298 58 102 159 305 295 9 90 326 98 20 151 108 49 65 84 92 40 62 55 19 19
272 277 279 275 269 271 280 291 304 310 327 308 301 292 314 288 324 15 292 342 317 328 305 333 316 50 104 156 140 100 81 57 30 358 81 71 114 70 305 331 80 31 308 84 186 144 156
265 271 272 268 268 262 268 280 294 297 308 306 312 328 314 279 320 313 314 319 319 308 242 293 6 97 174 321 159 296 67 63 45 22 20 98 92 75 145 28 139 235 284 265 118 316 148
263 266 268 267 267 262 256 266 279 285 293 295 293 275 260 280 294 295 348 332 320 345 348 183 116 65 92 79 68 33 357 28 21 19 13 24 102 69 116 124 284 275 257 247 177 266 247
254 259 264 265 270 267 251 256 265 271 285 287 280 245 223 279 245 53 330 313 332 317 340 3 324 319 336 81 65 90 90 346 340 357 21 41 59 92 94 93 276 286 300 314 4 307 316
249 255 257 258 260 262 247 242 250 263 278 275 264 219 212 266 277 336 266 302 319 314 274 322 337 338 339 98 69 98 125 117 24 351 333 27 1 53 157 111 292 274 297 322 95 240 352
245 247 251 254 254 250 241 238 244 260 270 265 229 221 225 265 269 267 275 269 292 261 42 319 345 352 17 64 102 157 101 126 139 199 163 101 109 15 74 51 316 246 300 162 233 8 73
240 244 246 248 249 241 234 230 240 254 261 258 241 203 237 250 264 258 271 256 246 232 286 327 190 250 346 101 86 130 116 151 144 245 351 234 140 186 177 206 223 292 280 345 1 210 140
Wind_Speed_850mb
35 35 35 35 35 35 34 34 34 34 35 36 36 36 37 35 33 27 23 21 19 19 20 21 21 20 17 15 36 9 6 4 20 27 31 28 38 26 9 19 34 5 7 27 31 29 25
37 36 36 35 35 35 35 36 36 36 37 37 38 38 39 37 34 26 21 20 17 17 18 18 19 20 18 23 31 24 28 21 20 29 29 29 30 24 29 20 10 18 7 8 24 30 31
36 36 37 37 36 37 36 37 38 39 39 40 41 41 41 40 35 25 19 17 14 15 16 16 17 20 30 48 12 19 23 22 23 26 30 30 31 37 53 27 30 42 7 15 18 10 14
35 35 36 37 38 38 39 39 40 40 41 42 42 44 43 42 35 23 17 13 12 13 13 13 15 19 28 30 33 41 26 28 30 25 32 27 32 53 21 25 29 11 6 6 14 17 10
35 35 36 37 38 40 40 41 42 43 43 44 45 46 45 44 34 21 14 10 10 12 12 11 11 13 26 15 25 39 31 24 20 29 34 33 46 26 18 6 11 12 6 11 9 14 9
33 35 37 38 39 40 42 43 43 44 45 46 46 47 47 45 33 19 11 10 9 11 12 11 15 10 31 23 27 42 31 24 23 28 29 31 22 5 8 10 8 5 8 9 8 6 21
34 35 36 38 41 42 42 43 45 46 47 48 48 48 47 46 31 18 11 7 5 5 18 24 18 31 15 22 18 31 41 30 31 23 5 31 3 17 21 10 16 16 15 13 3 12 17
36 36 37 38 40 43 44 45 46 47 49 50 49 49 47 45 27 17 15 15 9 5 19 28 49 54 54 39 17 36 34 28 14 12 3 8 16 26 17 16 18 21 14 12 6 15 22
38 39 39 39 40 42 46 47 48 48 49 50 51 50 47 42 23 16 18 22 14 29 10 26 40 47 55 18 27 38 47 49 9 11 11 17 31 12 18 22 17 23 12 8 9 9 13
37 40 42 41 41 43 44 47 49 50 51 51 52 51 48 39 16 9 3 18 11 11 8 12 15 19 27 27 14 39 46 39 12 20 13 13 39 27 19 16 14 11 5 9 4 8 10
39 39 41 44 44 44 45 47 50 52 52 52 52 51 48 39 15 13 7 17 18 4 7 9 12 4 30 18 5 22 43 49 23 16 13 18 7 14 18 26 12 14 9 3 2 8 7
41 42 42 43 45 47 47 47 49 53 53 54 52 52 51 38 21 9 12 6 10 9 11 7 18 14 12 15 13 28 33 47 23 6 10 19 36 12 20 17 12 6 6 14 11 7 8
43 43 44 45 46 48 50 50 50 53 55 56 53 51 49 30 10 16 9 5 9 5 13 10 12 13 13 13 10 10 16 11 16 5 12 15 16 10 14 3 12 13 14 8 9 9 7
43 44 45 45 45 48 50 53 52 53 57 59 54 49 37 18 26 16 7 9 5 11 15 4 10 17 15 12 14 15 15 15 12 10 5 6 15 8 4 10 18 9 16 12 10 5 6
46 47 48 45 44 46 49 53 55 54 56 61 56 46 26 11 33 21 7 5 14 12 11 13 8 9 10 12 11 13 21 20 17 17 16 3 13 11 6 10 19 12 6 17 14 6 9
45 48 48 45 44 43 47 50 54 55 55 59 58 43 20 14 40 26 8 10 11 8 16 10 11 11 17 13 12 11 17 17 17 22 25 14 10 14 16 13 5 17 8 2 5 10 5
46 46 48 44 42 41 44 45 51 54 53 47 41 21 6 24 41 13 7 14 14 34 21 12 11 15 18 15 22 17 24 11 34 18 32 11 8 20 5 4 7 9 8 11 12 7 10
45 47 46 45 38 37 38 43 45 51 51 41 16 6 18 34 10 8 7 8 12 36 71 28 14 23 17 10 12 22 24 24 58 52 20 22 12 8 10 4 12 11 5 12 8 5 5
48 48 45 40 36 32 33 38 40 45 50 52 38 13 26 42 4 5 13 12 30 35 41 14 11 8 6 13 1 18 23 43 36 27 22 15 2 3 18 13 7 11 12 12 9 10 13
44 43 44 37 34 32 30 33 36 39 40 41 14 7 4 39 31 3 8 15 9 47 33 22 17 8 10 13 3 6 12 5 34 35 30 21 8 14 14 13 9 2 11 3 3 9 8
41 41 42 35 33 33 31 28 32 33 34 31 5 5 5 8 8 10 1 9 22 19 16 23 14 5 5 15 14 14 8 6 12 28 15 13 9 9 9 9 9 11 7 6 7 9 9
41 40 38 34 34 33 32 29 29 29 29 15 6 10 16 14 24 8 6 7 27 31 2 29 9 15 19 9 6 6 3 12 3 10 5 6 4 5 10 3 15 11 12 14 8 17 14
41 39 38 35 37 35 31 29 26 25 22 8 8 13 9 13 11 5 5 14 24 27 24 7 12 5 13 8 13 32 42 31 19 7 5 9 10 7 1 9 11 7 3 4 6 4 4
42 40 37 37 37 38 35 30 25 25 22 17 14 14 6 8 5 5 18 25 25 22 12 11 12 9 6 7 5 12 26 50 52 42 30 9 10 6 4 7 2 11 8 13 9 9 8
43 39 36 37 37 37 39 35 27 25 25 22 14 9 5 7 12 17 23 14 37 48 15 4 6 8 9 8 8 10 12 14 15 18 26 15 9 9 8 4 10 5 5 4 11 11 5
41 38 35 33 32 32 36 38 30 24 26 24 16 19 10 5 12 5 19 17 7 11 18 13 18 13 9 8 8 8 5 6 11 16 14 17 15 9 5 8 4 9 8 9 9 7 9
39 38 36 33 31 30 30 31 27 22 24 22 11 16 13 12 31 11 5 7 14 15 5 8 26 19 6 5 8 6 4 5 4 9 9 9 9 7 3 7 3 11 13 17 9 12 31
39 38 34 33 31 31 30 30 24 23 24 23 10 21 28 13 55 47 34 27 20 8 3 20 11 11 12 9 8 3 6 3 6 5 3 6 6 4 1 10 9 9 13 5 11 10 18
39 38 34 34 32 32 32 28 27 24 24 23 15 30 13 28 31 21 41 38 43 23 9 13 1 6 2 8 6 6 6 4 8 4 4 5 12 9 13 12 11 17 16 10 11 11 32
Wind_Direction_850mb
22 19 16 13 12 10 8 6 3 360 356 353 349 347 344 338 329 315 302 289 276 264 255 253 253 259 271 262 251 181 123 301 272 265 268 280 287 289 286 310 316 162 244 182 194 188 206
18 17 15 13 9 6 4 2 0 358 355 351 349 346 344 339 331 317 302 287 273 259 255 251 250 255 253 248 239 239 254 254 275 258 261 260 263 305 296 277 302 297 325 181 211 227 205
16 14 12 12 9 5 2 360 358 356 353 351 348 345 343 340 332 318 300 282 265 253 251 250 249 249 250 244 236 231 224 233 254 274 265 251 279 287 293 293 335 341 270 328 299 206 169
10 9 9 6 6 4 1 359 356 354 352 349 347 345 344 340 333 319 298 270 252 250 249 245 248 262 259 258 255 245 229 245 242 256 259 273 295 287 272 317 342 332 28 26 291 158 190
4 4 3 3 1 359 358 356 354 353 350 348 347 345 343 340 333 319 292 254 231 231 235 235 244 255 265 245 234 204 218 227 226 247 256 272 282 280 320 46 357 1 287 235 283 217 148
357 358 358 357 356 355 353 352 351 350 348 347 346 344 342 340 332 315 278 239 224 223 220 218 223 281 250 249 207 198 192 221 264 271 276 254 277 7 347 76 240 310 276 238 176 274 72
349 350 352 354 352 350 349 348 347 346 345 344 344 343 342 340 329 309 268 217 202 223 236 227 220 221 245 16 221 208 216 222 251 277 275 262 65 238 255 220 252 267 273 250 277 148 72
343 343 344 346 349 349 346 344 343 343 342 340 340 340 340 339 326 301 256 223 160 16 288 276 255 256 263 272 299 229 205 212 217 227 264 339 244 242 243 244 252 278 226 274 218 128 111
338 338 338 339 340 344 345 343 341 339 338 337 336 337 338 338 320 288 257 242 224 297 284 280 246 246 248 234 235 253 204 206 184 213 218 200 243 254 244 276 275 268 211 259 176 109 44
333 334 335 334 334 337 340 341 339 337 336 334 333 333 335 337 313 277 22 25 243 258 25 272 198 249 227 238 262 206 197 198 209 210 221 229 255 254 258 256 226 230 202 277 183 110 179
327 328 329 331 331 332 334 336 336 336 334 331 328 328 329 325 273 242 5 342 351 106 348 226 181 231 205 188 213 204 198 204 210 228 125 236 246 243 260 242 226 230 169 228 334 112 93
320 323 325 326 328 330 330 330 333 334 334 329 325 324 320 314 267 238 255 327 134 46 256 253 144 184 133 205 231 196 212 213 227 218 277 251 278 207 235 228 179 189 105 37 53 83 16
316 318 319 321 324 326 327 327 329 332 333 327 322 323 312 288 234 202 250 26 57 178 311 198 181 140 172 195 232 163 192 208 202 147 281 299 264 254 212 127 3 74 59 1 351 24 203
310 313 313 316 320 323 326 326 327 330 333 326 323 322 302 263 198 199 219 58 196 257 251 212 128 150 176 170 235 190 161 202 246 146 40 232 293 210 345 183 189 184 146 157 212 126 244
307 310 309 309 314 319 324 325 326 329 334 329 328 325 296 199 187 191 148 121 215 222 302 26 29 149 234 210 169 153 175 203 218 163 172 197 274 325 266 192 141 246 205 185 116 56 85
305 309 309 305 309 316 320 325 326 330 336 336 334 324 286 196 181 178 90 232 236 216 1 6 246 193 200 224 167 134 171 207 224 198 171 235 270 257 274 157 173 157 178 90 16 140 162
302 306 306 301 302 312 318 324 327 330 338 343 336 329 49 165 166 159 165 234 282 283 303 320 302 230 231 190 174 189 202 251 198 222 165 161 130 279 353 31 117 351 314 63 106 86 146
299 302 304 299 294 307 319 322 329 332 339 347 357 330 183 167 131 188 195 210 299 297 300 293 243 220 186 163 196 193 201 200 206 211 168 202 166 193 213 204 173 177 29 114 122 196 227
295 297 300 297 286 298 317 322 329 335 344 350 335 288 185 180 148 270 283 289 282 285 279 282 289 293 186 186 194 192 203 226 201 194 193 178 241 11 343 352 348 96 72 50 131 109 214
291 295 297 290 280 289 308 320 324 330 338 343 333 338 310 216 244 137 342 293 268 295 288 287 256 310 31 11 11 205 226 233 206 188 193 135 112 150 189 210 210 173 92 103 127 103 226
287 290 293 289 278 283 299 315 319 325 331 338 274 274 348 310 347 341 237 281 290 271 298 318 301 274 95 27 349 3 350 305 69 145 125 110 121 132 181 171 60 27 60 75 87 212 164
279 284 286 284 277 276 288 303 314 320 330 331 299 354 343 292 290 282 266 277 283 297 221 301 275 298 58 102 159 305 295 9 90 326 98 20 151 108 49 65 84 92 40 62 55 19 19
272 277 279 275 269 271 280 291 304 310 327 308 301 292 314 288 324 15 292 342 317 328 305 333 316 50 104 156 140 100 81 57 30 358 81 71 114 70 305 331 80 31 308 84 186 144 156
265 271 272 268 268 262 268 280 294 297 308 306 312 328 314 279 320 313 314 319 319 308 242 293 6 97 174 321 159 296 67 63 45 22 20 98 92 75 145 28 139 235 284 265 118 316 148
263 266 268 267 267 262 256 266 279 285 293 295 293 275 260 280 294 295 348 332 320 345 348 183 116 65 92 79 68 33 357 28 21 19 13 24 102 69 116 124 284 275 257 247 177 266 247
254 259 264 265 270 267 251 256 265 271 285 287 280 245 223 279 245 53 330 313 332 317 340 3 324 319 336 81 65 90 90 346 340 357 21 41 59 92 94 93 276 286 300 314 4 307 316
249 255 257 258 260 262 247 242 250 263 278 275 264 219 212 266 277 336 266 302 319 314 274 322 337 338 339 98 69 98 125 117 24 351 333 27 1 53 157 111 292 274 297 322 95 240 352
245 247 251 254 254 250 241 238 244 260 270 265 229 221 225 265 269 267 275 269 292 261 42 319 345 352 17 64 102 157 101 126 139 199 163 101 109 15 74 51 316 246 300 162 233 8 73
240 244 246 248 249 241 234 230 240 254 261 258 241 203 237 250 264 258 271 256 246 232 286 327 190 250 346 101 86 130 116 151 144 245 351 234 140 186 177 206 223 292 280 345 1 210 140